| time (UTC) | temp F | wind direction | speed knots | gust knots | rain 1hr in | rain 24hr in | rain mn in | humidity % | barometer mb |
| 20260504120115 | 60 | 149 | 0.0 | 1.7 | 0.00 | 0.00 | 0.00 | 76 | 1014.7 |
| 20260504081524 | 62 | 135 | 1.7 | 5.2 | 0.00 | 0.00 | 0.00 | 71 | 1015.7 |
| 20260504070202 | 63 | 126 | 0.0 | 4.3 | 0.00 | 0.00 | 0.00 | 70 | 1016.8 |
| 20260504050008 | 64 | 115 | 0.9 | 5.2 | 0.00 | 0.00 | 0.00 | 67 | 1017.7 |
| 20260504044547 | 65 | 136 | 1.7 | 6.1 | 0.00 | 0.00 | 0.00 | 67 | 1017.9 |
| 20260504043024 | 65 | 123 | 0.9 | 5.2 | 0.00 | 0.00 | 0.00 | 65 | 1018.1 |
| 20260504041600 | 65 | 128 | 1.7 | 7.0 | 0.00 | 0.00 | 0.00 | 65 | 1018.1 |
| 20260504040038 | 65 | 120 | 1.7 | 6.1 | 0.00 | 0.00 | 0.00 | 64 | 1018.2 |
| 20260504034519 | 66 | 124 | 3.5 | 7.0 | 0.00 | 0.00 | 0.00 | 63 | 1018.1 |
| 20260504033054 | 66 | 123 | 3.5 | 8.7 | 0.00 | 0.00 | 0.00 | 61 | 1018.2 |
| 20260504031529 | 67 | 130 | 3.5 | 7.8 | 0.00 | 0.00 | 0.00 | 60 | 1018.0 |
| 20260504030059 | 67 | 122 | 2.6 | 6.1 | 0.00 | 0.00 | 0.00 | 59 | 1018.0 |
| 20260504024544 | 68 | 164 | 2.6 | 7.8 | 0.00 | 0.00 | 0.00 | 58 | 1017.9 |
| 20260504023011 | 68 | 132 | 2.6 | 6.1 | 0.00 | 0.00 | 0.00 | 57 | 1017.9 |
| 20260504021553 | 69 | 112 | 1.7 | 7.0 | 0.00 | 0.00 | 0.00 | 57 | 1017.5 |
| 20260504020023 | 69 | 117 | 2.6 | 7.0 | 0.00 | 0.00 | 0.00 | 56 | 1017.3 |
| 20260504014600 | 70 | 127 | 2.6 | 7.0 | 0.00 | 0.00 | 0.00 | 54 | 1017.2 |
| 20260504013045 | 71 | 138 | 3.5 | 8.7 | 0.00 | 0.00 | 0.00 | 51 | 1017.0 |
| 20260504011514 | 72 | 134 | 3.5 | 10.4 | 0.00 | 0.00 | 0.00 | 50 | 1016.8 |
| 20260504010048 | 73 | 149 | 3.5 | 7.0 | 0.00 | 0.00 | 0.00 | 46 | 1016.8 |
| 20260504004538 | 76 | 132 | 0.9 | 3.5 | 0.00 | 0.00 | 0.00 | 43 | 1016.9 |
| 20260504003102 | 77 | 160 | 1.7 | 5.2 | 0.00 | 0.00 | 0.00 | 41 | 1017.1 |
| 20260504001529 | 78 | 154 | 1.7 | 7.0 | 0.00 | 0.00 | 0.00 | 39 | 1017.1 |
| 20260504000004 | 79 | 155 | 1.7 | 7.8 | 0.00 | 0.00 | 0.00 | 36 | 1017.1 |
| 20260503234540 | 79 | 113 | 1.7 | 7.0 | 0.00 | 0.00 | 0.00 | 35 | 1017.2 |
| 20260503233010 | 80 | 115 | 4.3 | 11.3 | 0.00 | 0.00 | 0.00 | 33 | 1017.1 |
| 20260503231552 | 80 | 144 | 4.3 | 7.8 | 0.00 | 0.00 | 0.00 | 32 | 1017.2 |
| 20260503230016 | 79 | 133 | 3.5 | 7.8 | 0.00 | 0.00 | 0.00 | 33 | 1017.3 |
| 20260503224543 | 79 | 128 | 2.6 | 9.6 | 0.00 | 0.00 | 0.00 | 33 | 1017.5 |
| 20260503223013 | 79 | 157 | 3.5 | 7.8 | 0.00 | 0.00 | 0.00 | 33 | 1017.6 |
| 20260503221551 | 80 | 65 | 3.5 | 10.4 | 0.00 | 0.00 | 0.00 | 31 | 1017.8 |
| 20260503220018 | 80 | 115 | 3.5 | 8.7 | 0.00 | 0.00 | 0.00 | 31 | 1018.1 |
| 20260503214551 | 80 | 127 | 4.3 | 9.6 | 0.00 | 0.00 | 0.00 | 32 | 1018.2 |
| 20260503213018 | 80 | 132 | 1.7 | 10.4 | 0.00 | 0.00 | 0.00 | 31 | 1018.6 |
| 20260503211600 | 80 | 180 | 2.6 | 9.6 | 0.00 | 0.00 | 0.00 | 32 | 1018.7 |
| 20260503210020 | 80 | 122 | 4.3 | 9.6 | 0.00 | 0.00 | 0.00 | 34 | 1019.1 |
| 20260503204549 | 80 | 107 | 2.6 | 6.1 | 0.00 | 0.00 | 0.00 | 32 | 1019.5 |
| 20260503203021 | 80 | 106 | 4.3 | 7.8 | 0.00 | 0.00 | 0.00 | 31 | 1019.7 |
| 20260503201549 | 79 | 114 | 1.7 | 8.7 | 0.00 | 0.00 | 0.00 | 33 | 1020.0 |
| 20260503200021 | 80 | 144 | 4.3 | 8.7 | 0.00 | 0.00 | 0.00 | 32 | 1020.2 |
| 20260503194552 | 79 | 146 | 3.5 | 7.8 | 0.00 | 0.00 | 0.00 | 35 | 1020.4 |
| 20260503193034 | 79 | 139 | 2.6 | 7.8 | 0.00 | 0.00 | 0.00 | 36 | 1020.7 |
| 20260503191551 | 79 | 200 | 3.5 | 8.7 | 0.00 | 0.00 | 0.00 | 36 | 1020.9 |
| 20260503190030 | 79 | 165 | 4.3 | 8.7 | 0.00 | 0.00 | 0.00 | 38 | 1021.2 |
| 20260503184606 | 78 | 61 | 2.6 | 7.8 | 0.00 | 0.00 | 0.00 | 40 | 1021.4 |
| 20260503183030 | 78 | 98 | 4.3 | 7.8 | 0.00 | 0.00 | 0.00 | 38 | 1021.6 |
| 20260503181505 | 78 | 134 | 3.5 | 7.0 | 0.00 | 0.00 | 0.00 | 38 | 1021.9 |
| 20260503180035 | 77 | 143 | 3.5 | 7.8 | 0.00 | 0.00 | 0.00 | 39 | 1022.2 |
| 20260503174510 | 77 | 211 | 3.5 | 7.8 | 0.00 | 0.00 | 0.00 | 39 | 1022.5 |
| 20260503173046 | 77 | 221 | 0.9 | 6.1 | 0.00 | 0.00 | 0.00 | 38 | 1022.7 |
| 20260503171512 | 76 | 126 | 3.5 | 7.8 | 0.00 | 0.00 | 0.00 | 44 | 1022.9 |